Time,TemperatureF,DewpointF,PressureIn,WindDirection,WindDirectionDegrees,WindSpeedMPH,WindSpeedGustMPH,Humidity,HourlyPrecipIn,Conditions,Clouds,dailyrainin,SoftwareType,DateUTC
2013-04-02 00:00:00,48.5,45.7,30.19,NNW,343,0.0,0.0,90,0.00,,---,0.00,VWS V13.00,2013-04-02 07:00:00,
2013-04-02 00:05:00,48.6,45.8,30.19,NNW,343,0.0,0.0,90,0.00,,---,0.00,VWS V13.00,2013-04-02 07:05:00,
2013-04-02 00:10:00,48.6,45.8,30.19,NNW,343,0.0,0.0,90,0.00,,---,0.00,VWS V13.00,2013-04-02 07:10:00,
2013-04-02 00:15:00,48.8,46.0,30.19,NNW,343,0.0,0.0,90,0.00,,---,0.00,VWS V13.00,2013-04-02 07:15:00,
2013-04-02 00:20:00,48.8,46.0,30.19,NNW,343,0.0,0.0,90,0.00,,---,0.00,VWS V13.00,2013-04-02 07:20:00,
2013-04-02 00:25:00,48.9,46.1,30.19,NNW,343,0.0,0.0,90,0.00,,---,0.00,VWS V13.00,2013-04-02 07:25:00,
2013-04-02 00:30:00,48.9,46.1,30.19,NNW,343,0.0,0.0,90,0.00,,---,0.00,VWS V13.00,2013-04-02 07:30:00,
2013-04-02 00:35:00,48.9,46.1,30.19,NNW,343,0.0,0.0,90,0.00,,---,0.00,VWS V13.00,2013-04-02 07:35:00,
2013-04-02 00:40:00,49.1,46.3,30.20,NNW,343,0.0,0.0,90,0.00,,---,0.00,VWS V13.00,2013-04-02 07:40:00,
2013-04-02 00:45:00,49.1,46.3,30.20,NNW,343,0.0,0.0,90,0.00,,---,0.00,VWS V13.00,2013-04-02 07:45:00,
2013-04-02 00:50:00,49.1,46.3,30.20,NNW,343,0.0,0.0,90,0.00,,---,0.00,VWS V13.00,2013-04-02 07:50:00,
2013-04-02 00:55:00,49.1,46.3,30.20,NNW,343,0.0,0.0,90,0.00,,---,0.00,VWS V13.00,2013-04-02 07:55:00,
2013-04-02 01:00:00,49.2,46.4,30.20,NNW,343,0.0,0.0,90,0.00,,---,0.00,VWS V13.00,2013-04-02 08:00:00,
2013-04-02 01:05:00,49.2,46.4,30.20,NNW,343,0.0,0.0,90,0.00,,---,0.00,VWS V13.00,2013-04-02 08:05:00,
2013-04-02 01:10:00,49.2,46.4,30.20,NNW,343,0.0,0.0,90,0.00,,---,0.00,VWS V13.00,2013-04-02 08:10:00,
2013-04-02 01:15:00,49.2,46.4,30.20,NNW,343,0.0,0.0,90,0.00,,---,0.00,VWS V13.00,2013-04-02 08:15:00,
2013-04-02 01:20:00,49.2,46.1,30.20,NNW,343,0.0,0.0,89,0.00,,---,0.00,VWS V13.00,2013-04-02 08:20:00,
2013-04-02 01:25:00,49.4,46.3,30.20,NNW,343,0.0,0.0,89,0.00,,---,0.00,VWS V13.00,2013-04-02 08:25:00,
2013-04-02 01:30:00,49.4,46.3,30.20,NNW,343,0.0,0.0,89,0.00,,---,0.00,VWS V13.00,2013-04-02 08:30:00,
2013-04-02 01:35:00,49.4,46.3,30.20,NNW,343,0.0,0.0,89,0.00,,---,0.00,VWS V13.00,2013-04-02 08:35:00,
2013-04-02 01:40:00,49.4,46.3,30.20,NNW,343,0.0,0.0,89,0.00,,---,0.00,VWS V13.00,2013-04-02 08:40:00,
2013-04-02 01:45:00,49.4,46.3,30.20,NNW,343,0.0,0.0,89,0.00,,---,0.00,VWS V13.00,2013-04-02 08:45:00,
2013-04-02 01:50:00,49.4,46.3,30.20,NNW,343,0.0,0.0,89,0.00,,---,0.00,VWS V13.00,2013-04-02 08:50:00,
2013-04-02 01:55:00,49.4,46.3,30.20,NNW,343,0.0,0.0,89,0.00,,---,0.00,VWS V13.00,2013-04-02 08:55:00,
2013-04-02 02:00:00,49.4,46.3,30.20,NNW,343,0.0,0.0,89,0.00,,---,0.00,VWS V13.00,2013-04-02 09:00:00,
2013-04-02 02:05:00,49.4,46.3,30.20,WSW,258,0.0,0.0,89,0.00,,---,0.00,VWS V13.00,2013-04-02 09:05:00,
2013-04-02 02:10:00,49.4,46.3,30.20,WSW,250,0.0,0.0,89,0.00,,---,0.00,VWS V13.00,2013-04-02 09:10:00,
2013-04-02 02:15:00,49.4,46.3,30.20,SSW,210,0.0,0.0,89,0.00,,---,0.00,VWS V13.00,2013-04-02 09:15:00,
2013-04-02 02:20:00,49.4,46.3,30.20,SSW,210,0.0,0.0,89,0.00,,---,0.00,VWS V13.00,2013-04-02 09:20:00,
2013-04-02 02:25:00,49.4,46.3,30.20,SSW,210,0.0,0.0,89,0.00,,---,0.00,VWS V13.00,2013-04-02 09:25:00,
2013-04-02 02:30:00,49.4,46.3,30.20,SSW,210,0.0,0.0,89,0.00,,---,0.00,VWS V13.00,2013-04-02 09:30:00,
2013-04-02 02:35:00,49.4,46.3,30.20,SSW,210,0.0,0.0,89,0.00,,---,0.00,VWS V13.00,2013-04-02 09:35:00,
2013-04-02 02:40:00,49.4,46.3,30.20,SSW,210,0.0,0.0,89,0.00,,---,0.00,VWS V13.00,2013-04-02 09:40:00,
2013-04-02 02:45:00,49.4,46.3,30.20,SSW,210,0.0,0.0,89,0.00,,---,0.00,VWS V13.00,2013-04-02 09:45:00,
2013-04-02 02:50:00,49.4,46.3,30.20,SSW,210,0.0,0.0,89,0.00,,---,0.00,VWS V13.00,2013-04-02 09:50:00,
2013-04-02 02:55:00,49.4,46.3,30.20,SSW,210,0.0,0.0,89,0.00,,---,0.00,VWS V13.00,2013-04-02 09:55:00,
2013-04-02 03:00:00,49.4,46.3,30.20,SSW,210,0.0,0.0,89,0.00,,---,0.00,VWS V13.00,2013-04-02 10:00:00,
2013-04-02 03:05:00,49.4,46.3,30.20,SSW,210,0.0,0.0,89,0.00,,---,0.00,VWS V13.00,2013-04-02 10:05:00,
2013-04-02 03:10:00,49.4,46.3,30.20,SSW,210,0.0,0.0,89,0.00,,---,0.00,VWS V13.00,2013-04-02 10:10:00,
2013-04-02 03:15:00,49.4,46.3,30.20,SSW,210,0.0,0.0,89,0.00,,---,0.00,VWS V13.00,2013-04-02 10:15:00,
2013-04-02 03:20:00,49.4,46.3,30.20,SSW,210,0.0,0.0,89,0.00,,---,0.00,VWS V13.00,2013-04-02 10:20:00,
2013-04-02 03:25:00,49.2,46.1,30.19,SSW,210,0.0,0.0,89,0.00,,---,0.00,VWS V13.00,2013-04-02 10:25:00,
2013-04-02 03:30:00,49.2,46.1,30.19,SSW,210,0.0,0.0,89,0.00,,---,0.00,VWS V13.00,2013-04-02 10:30:00,
2013-04-02 03:35:00,49.2,46.1,30.19,SSW,210,0.0,0.0,89,0.00,,---,0.00,VWS V13.00,2013-04-02 10:35:00,
2013-04-02 03:40:00,49.2,46.1,30.19,SSW,210,0.0,0.0,89,0.00,,---,0.00,VWS V13.00,2013-04-02 10:40:00,
2013-04-02 03:45:00,49.2,46.1,30.19,SSW,210,0.0,0.0,89,0.00,,---,0.00,VWS V13.00,2013-04-02 10:45:00,
2013-04-02 03:50:00,49.2,46.1,30.19,SSW,210,0.0,0.0,89,0.00,,---,0.00,VWS V13.00,2013-04-02 10:50:00,
2013-04-02 03:55:00,49.2,46.1,30.19,SSW,210,0.0,0.0,89,0.00,,---,0.00,VWS V13.00,2013-04-02 10:55:00,
2013-04-02 04:00:00,49.2,46.1,30.19,SSW,210,0.0,0.0,89,0.00,,---,0.00,VWS V13.00,2013-04-02 11:00:00,
2013-04-02 04:05:00,49.2,46.4,30.19,SSW,210,0.0,0.0,90,0.00,,---,0.00,VWS V13.00,2013-04-02 11:05:00,
2013-04-02 04:10:00,49.2,46.4,30.19,SSW,210,0.0,0.0,90,0.00,,---,0.00,VWS V13.00,2013-04-02 11:10:00,
2013-04-02 04:15:00,49.1,46.3,30.19,SSW,210,0.0,0.0,90,0.00,,---,0.00,VWS V13.00,2013-04-02 11:15:00,
2013-04-02 04:20:00,49.1,46.3,30.19,SSW,210,0.0,0.0,90,0.00,,---,0.00,VWS V13.00,2013-04-02 11:20:00,
2013-04-02 04:25:00,49.1,46.3,30.19,SSW,210,0.0,0.0,90,0.00,,---,0.00,VWS V13.00,2013-04-02 11:25:00,
2013-04-02 04:30:00,49.1,46.3,30.19,SSW,210,0.0,0.0,90,0.00,,---,0.00,VWS V13.00,2013-04-02 11:30:00,
2013-04-02 04:35:00,49.1,46.3,30.19,SSW,210,0.0,0.0,90,0.00,,---,0.00,VWS V13.00,2013-04-02 11:35:00,
2013-04-02 04:40:00,49.1,46.3,30.20,SSW,210,0.0,0.0,90,0.00,,---,0.00,VWS V13.00,2013-04-02 11:40:00,
2013-04-02 04:45:00,49.1,46.3,30.20,SSW,210,0.0,0.0,90,0.00,,---,0.00,VWS V13.00,2013-04-02 11:45:00,
2013-04-02 04:50:00,48.9,46.1,30.20,SSW,210,0.0,0.0,90,0.00,,---,0.00,VWS V13.00,2013-04-02 11:50:00,
2013-04-02 04:55:00,48.9,46.1,30.20,SSW,210,0.0,0.0,90,0.00,,---,0.00,VWS V13.00,2013-04-02 11:55:00,
2013-04-02 05:00:00,48.9,46.1,30.20,SSW,210,0.0,0.0,90,0.00,,---,0.00,VWS V13.00,2013-04-02 12:00:00,
2013-04-02 05:05:00,48.9,46.1,30.20,SSW,210,0.0,0.0,90,0.00,,---,0.00,VWS V13.00,2013-04-02 12:05:00,
2013-04-02 05:10:00,48.9,46.1,30.20,SSW,210,0.0,0.0,90,0.00,,---,0.00,VWS V13.00,2013-04-02 12:10:00,
2013-04-02 05:15:00,48.9,46.1,30.20,SSW,210,0.0,0.0,90,0.00,,---,0.00,VWS V13.00,2013-04-02 12:15:00,
2013-04-02 05:20:00,48.9,46.1,30.20,SSW,210,0.0,0.0,90,0.00,,---,0.00,VWS V13.00,2013-04-02 12:20:00,
2013-04-02 05:25:00,48.9,46.1,30.20,SSW,210,0.0,0.0,90,0.00,,---,0.00,VWS V13.00,2013-04-02 12:25:00,
2013-04-02 05:30:00,48.9,46.4,30.20,SSW,210,0.0,0.0,91,0.00,,---,0.00,VWS V13.00,2013-04-02 12:30:00,
2013-04-02 05:35:00,48.9,46.4,30.20,SSW,210,0.0,0.0,91,0.00,,---,0.00,VWS V13.00,2013-04-02 12:35:00,
2013-04-02 05:40:00,48.9,46.4,30.20,SSW,210,0.0,0.0,91,0.00,,---,0.00,VWS V13.00,2013-04-02 12:40:00,
2013-04-02 05:45:00,48.8,46.3,30.20,SSW,210,0.0,0.0,91,0.00,,---,0.00,VWS V13.00,2013-04-02 12:45:00,
2013-04-02 05:50:00,48.8,46.3,30.20,SSW,210,0.0,0.0,91,0.00,,---,0.00,VWS V13.00,2013-04-02 12:50:00,
2013-04-02 05:55:00,48.8,46.3,30.20,SSW,210,0.0,0.0,91,0.00,,---,0.00,VWS V13.00,2013-04-02 12:55:00,
2013-04-02 06:00:00,48.8,46.3,30.20,SSW,210,0.0,0.0,91,0.00,,---,0.00,VWS V13.00,2013-04-02 13:00:00,
2013-04-02 06:05:00,48.8,46.3,30.20,SSW,210,0.0,0.0,91,0.00,,---,0.00,VWS V13.00,2013-04-02 13:05:00,
2013-04-02 06:10:00,48.8,46.3,30.19,SSW,210,0.0,0.0,91,0.00,,---,0.00,VWS V13.00,2013-04-02 13:10:00,
2013-04-02 06:15:00,48.8,46.3,30.19,SSW,210,0.0,0.0,91,0.00,,---,0.00,VWS V13.00,2013-04-02 13:15:00,
2013-04-02 06:20:00,48.8,46.3,30.19,SSW,210,0.0,0.0,91,0.00,,---,0.00,VWS V13.00,2013-04-02 13:20:00,
2013-04-02 06:25:00,48.8,46.3,30.20,SSW,210,0.0,0.0,91,0.00,,---,0.00,VWS V13.00,2013-04-02 13:25:00,
2013-04-02 06:30:00,48.8,46.3,30.20,SSW,210,0.0,0.0,91,0.00,,---,0.00,VWS V13.00,2013-04-02 13:30:00,
2013-04-02 06:35:00,48.6,46.1,30.20,SSW,210,0.0,0.0,91,0.00,,---,0.00,VWS V13.00,2013-04-02 13:35:00,
2013-04-02 06:40:00,48.6,46.1,30.20,SSW,210,0.0,0.0,91,0.00,,---,0.00,VWS V13.00,2013-04-02 13:40:00,
2013-04-02 06:45:00,48.6,46.1,30.20,SSW,210,0.0,0.0,91,0.00,,---,0.00,VWS V13.00,2013-04-02 13:45:00,
2013-04-02 06:50:00,48.6,46.1,30.20,SSW,210,0.0,0.0,91,0.00,,---,0.00,VWS V13.00,2013-04-02 13:50:00,
2013-04-02 06:55:00,48.6,46.1,30.20,SSW,210,0.0,0.0,91,0.00,,---,0.00,VWS V13.00,2013-04-02 13:55:00,
2013-04-02 07:00:00,48.6,46.1,30.20,SSW,210,0.0,0.0,91,0.00,,---,0.00,VWS V13.00,2013-04-02 14:00:00,
2013-04-02 07:05:00,48.6,46.1,30.20,SSW,210,0.0,0.0,91,0.00,,---,0.00,VWS V13.00,2013-04-02 14:05:00,
2013-04-02 07:10:00,48.5,46.0,30.20,SSW,210,0.0,0.0,91,0.00,,---,0.00,VWS V13.00,2013-04-02 14:10:00,
2013-04-02 07:15:00,48.5,46.0,30.20,SSW,210,0.0,0.0,91,0.00,,---,0.00,VWS V13.00,2013-04-02 14:15:00,
2013-04-02 07:20:00,48.5,46.0,30.20,SSW,210,0.0,0.0,91,0.00,,---,0.00,VWS V13.00,2013-04-02 14:20:00,
2013-04-02 07:25:00,48.5,46.0,30.20,SSW,210,0.0,0.0,91,0.00,,---,0.00,VWS V13.00,2013-04-02 14:25:00,
2013-04-02 07:30:00,48.5,46.0,30.20,SSW,210,0.0,0.0,91,0.00,,---,0.00,VWS V13.00,2013-04-02 14:30:00,
2013-04-02 07:35:00,48.5,46.0,30.20,SSW,210,0.0,0.0,91,0.00,,---,0.00,VWS V13.00,2013-04-02 14:35:00,
2013-04-02 07:40:00,48.3,45.8,30.21,SSW,210,0.0,0.0,91,0.00,,---,0.00,VWS V13.00,2013-04-02 14:40:00,
2013-04-02 07:45:00,48.3,45.8,30.21,SSW,210,0.0,0.0,91,0.00,,---,0.00,VWS V13.00,2013-04-02 14:45:00,
2013-04-02 07:50:00,48.3,45.8,30.21,SSW,210,0.0,0.0,91,0.00,,---,0.00,VWS V13.00,2013-04-02 14:50:00,
2013-04-02 07:55:00,48.3,45.8,30.21,SSW,210,0.0,0.0,91,0.00,,---,0.00,VWS V13.00,2013-04-02 14:55:00,
2013-04-02 08:00:00,48.2,45.7,30.21,SSW,210,0.0,0.0,91,0.00,,---,0.00,VWS V13.00,2013-04-02 15:00:00,
2013-04-02 08:05:00,48.2,45.7,30.21,SSW,210,0.0,0.0,91,0.00,,---,0.00,VWS V13.00,2013-04-02 15:05:00,
2013-04-02 08:10:00,48.2,45.7,30.21,SSW,210,0.0,0.0,91,0.00,,---,0.00,VWS V13.00,2013-04-02 15:10:00,
2013-04-02 08:15:00,48.2,46.0,30.21,SSW,210,0.0,0.0,92,0.00,,---,0.00,VWS V13.00,2013-04-02 15:15:00,
2013-04-02 08:20:00,48.2,46.0,30.21,SSW,210,0.0,0.0,92,0.01,,---,0.01,VWS V13.00,2013-04-02 15:20:00,
2013-04-02 08:25:00,48.2,46.0,30.21,SSW,210,0.0,0.0,92,0.01,,---,0.01,VWS V13.00,2013-04-02 15:25:00,
2013-04-02 08:30:00,48.2,46.0,30.21,SSW,210,0.0,0.0,92,0.01,,---,0.01,VWS V13.00,2013-04-02 15:30:00,
2013-04-02 08:35:00,48.2,46.0,30.21,SSW,210,0.0,0.0,92,0.01,,---,0.01,VWS V13.00,2013-04-02 15:35:00,
2013-04-02 08:40:00,48.2,46.0,30.22,SSW,210,0.0,0.0,92,0.01,,---,0.01,VWS V13.00,2013-04-02 15:40:00,
2013-04-02 08:45:00,48.2,46.0,30.22,SSW,210,0.0,0.0,92,0.01,,---,0.01,VWS V13.00,2013-04-02 15:45:00,
2013-04-02 08:50:00,48.2,46.0,30.22,SSW,210,0.0,0.0,92,0.01,,---,0.01,VWS V13.00,2013-04-02 15:50:00,
2013-04-02 08:55:00,48.2,46.3,30.21,SSW,210,0.0,0.0,93,0.01,,---,0.01,VWS V13.00,2013-04-02 15:55:00,
2013-04-02 09:00:00,48.2,46.3,30.21,SSW,210,0.0,0.0,93,0.01,,---,0.01,VWS V13.00,2013-04-02 16:00:00,
2013-04-02 09:05:00,48.2,46.3,30.21,SSW,210,0.0,0.0,93,0.01,,---,0.01,VWS V13.00,2013-04-02 16:05:00,
2013-04-02 09:10:00,48.2,46.3,30.21,SSW,210,0.0,0.0,93,0.01,,---,0.01,VWS V13.00,2013-04-02 16:10:00,
2013-04-02 09:15:00,48.3,46.4,30.21,SSW,210,0.0,0.0,93,0.01,,---,0.01,VWS V13.00,2013-04-02 16:15:00,
2013-04-02 09:20:00,48.3,46.4,30.21,SSW,210,0.0,0.0,93,0.01,,---,0.01,VWS V13.00,2013-04-02 16:20:00,
2013-04-02 09:25:00,48.3,46.4,30.21,SSW,210,0.0,0.0,93,0.01,,---,0.01,VWS V13.00,2013-04-02 16:25:00,
2013-04-02 09:30:00,48.5,46.6,30.21,SSW,210,0.0,0.0,93,0.01,,---,0.01,VWS V13.00,2013-04-02 16:30:00,
2013-04-02 09:36:00,48.6,47.0,30.21,SSW,210,0.0,0.0,94,0.01,,---,0.01,VWS V13.00,2013-04-02 16:36:00,
2013-04-02 09:41:00,48.8,47.2,30.21,SSW,210,0.0,0.0,94,0.00,,---,0.01,VWS V13.00,2013-04-02 16:41:00,
2013-04-02 09:49:00,48.8,47.2,30.21,SSW,210,0.0,0.0,94,0.00,,---,0.01,VWS V13.00,2013-04-02 16:49:00,
2013-04-02 09:54:00,48.8,47.2,30.21,SSW,210,0.0,0.0,94,0.00,,---,0.01,VWS V13.00,2013-04-02 16:54:00,
2013-04-02 09:59:00,48.9,47.2,30.21,SSW,210,0.0,0.0,94,0.00,,---,0.01,VWS V13.00,2013-04-02 16:59:00,
2013-04-02 10:04:00,48.9,47.2,30.21,SSW,210,0.0,0.0,94,0.00,,---,0.01,VWS V13.00,2013-04-02 17:04:00,
2013-04-02 10:09:00,49.1,47.5,30.22,SSW,210,0.0,0.0,94,0.00,,---,0.01,VWS V13.00,2013-04-02 17:09:00,
2013-04-02 10:14:00,49.1,47.5,30.22,SSW,210,0.0,0.0,94,0.00,,---,0.01,VWS V13.00,2013-04-02 17:14:00,
2013-04-02 10:19:00,49.2,47.5,30.22,SSW,210,0.0,1.0,94,0.00,,---,0.01,VWS V13.00,2013-04-02 17:19:00,
2013-04-02 10:25:00,49.2,47.5,30.22,SSW,210,0.0,1.0,94,0.00,,---,0.01,VWS V13.00,2013-04-02 17:25:00,
2013-04-02 10:30:00,49.1,47.5,30.22,SSW,210,0.0,1.0,94,0.00,,---,0.01,VWS V13.00,2013-04-02 17:30:00,
2013-04-02 10:35:00,49.1,47.5,30.22,SSW,210,0.0,1.0,94,0.00,,---,0.01,VWS V13.00,2013-04-02 17:35:00,
2013-04-02 10:40:00,49.2,47.5,30.21,SSW,210,0.0,0.0,94,0.00,,---,0.01,VWS V13.00,2013-04-02 17:40:00,
2013-04-02 10:45:00,49.2,47.5,30.21,SSW,210,0.0,0.0,94,0.00,,---,0.01,VWS V13.00,2013-04-02 17:45:00,
2013-04-02 10:50:00,49.2,47.3,30.21,SSW,210,0.0,0.0,93,0.00,,---,0.01,VWS V13.00,2013-04-02 17:50:00,
2013-04-02 10:55:00,49.4,47.8,30.21,SSW,210,0.0,0.0,94,0.00,,---,0.01,VWS V13.00,2013-04-02 17:55:00,
2013-04-02 11:00:00,49.5,47.6,30.21,SSW,210,0.0,0.0,93,0.00,,---,0.01,VWS V13.00,2013-04-02 18:00:00,
2013-04-02 11:05:00,49.8,47.9,30.21,SSW,210,0.0,0.0,93,0.00,,---,0.01,VWS V13.00,2013-04-02 18:05:00,
2013-04-02 11:10:00,49.8,47.9,30.21,SSW,210,0.0,0.0,93,0.00,,---,0.01,VWS V13.00,2013-04-02 18:10:00,
2013-04-02 11:15:00,49.9,48.0,30.21,NNW,344,0.0,1.0,93,0.00,,---,0.01,VWS V13.00,2013-04-02 18:15:00,
2013-04-02 11:20:00,50.2,48.3,30.21,NNW,344,0.0,1.0,93,0.00,,---,0.01,VWS V13.00,2013-04-02 18:20:00,
2013-04-02 11:25:00,50.7,48.8,30.21,NNW,344,0.0,1.0,93,0.00,,---,0.01,VWS V13.00,2013-04-02 18:25:00,
2013-04-02 11:30:00,50.8,48.6,30.21,NNW,344,0.0,1.0,92,0.00,,---,0.01,VWS V13.00,2013-04-02 18:30:00,
2013-04-02 11:35:00,51.0,48.8,30.21,NNW,344,0.0,1.0,92,0.00,,---,0.01,VWS V13.00,2013-04-02 18:35:00,
2013-04-02 11:40:00,51.1,48.9,30.21,NNW,343,0.0,0.0,92,0.00,,---,0.01,VWS V13.00,2013-04-02 18:40:00,
2013-04-02 11:45:00,51.1,48.9,30.21,NNW,343,0.0,0.0,92,0.00,,---,0.01,VWS V13.00,2013-04-02 18:45:00,
2013-04-02 11:50:00,51.1,48.6,30.21,NNW,343,0.0,1.0,91,0.00,,---,0.01,VWS V13.00,2013-04-02 18:50:00,
2013-04-02 11:55:00,51.1,48.6,30.21,NNW,343,0.0,1.0,91,0.00,,---,0.01,VWS V13.00,2013-04-02 18:55:00,
2013-04-02 12:00:00,51.1,48.3,30.21,NNW,343,0.0,1.0,90,0.00,,---,0.01,VWS V13.00,2013-04-02 19:00:00,
2013-04-02 12:05:00,51.1,48.3,30.21,NNW,343,0.0,1.0,90,0.00,,---,0.01,VWS V13.00,2013-04-02 19:05:00,
2013-04-02 12:10:00,51.3,48.5,30.21,NNW,343,0.0,0.0,90,0.00,,---,0.01,VWS V13.00,2013-04-02 19:10:00,
2013-04-02 12:15:00,51.3,48.5,30.21,NNW,343,0.0,0.0,90,0.00,,---,0.01,VWS V13.00,2013-04-02 19:15:00,
2013-04-02 12:23:00,51.3,48.2,30.21,NNW,343,0.0,0.0,89,0.00,,---,0.01,VWS V13.00,2013-04-02 19:23:00,
2013-04-02 12:28:00,51.3,48.2,30.21,NNW,343,0.0,0.0,89,0.00,,---,0.01,VWS V13.00,2013-04-02 19:28:00,
2013-04-02 12:34:00,51.3,48.2,30.21,NNW,343,0.0,0.0,89,0.00,,---,0.01,VWS V13.00,2013-04-02 19:34:00,
2013-04-02 12:39:00,51.4,48.3,30.21,NNW,343,0.0,0.0,89,0.00,,---,0.01,VWS V13.00,2013-04-02 19:39:00,
2013-04-02 12:44:00,51.4,48.3,30.21,NNW,343,0.0,0.0,89,0.00,,---,0.01,VWS V13.00,2013-04-02 19:44:00,
2013-04-02 12:49:00,51.6,48.5,30.21,NNW,343,0.0,0.0,89,0.00,,---,0.01,VWS V13.00,2013-04-02 19:49:00,
2013-04-02 12:56:00,51.6,48.2,30.21,NNW,343,0.0,0.0,88,0.00,,---,0.01,VWS V13.00,2013-04-02 19:56:00,
2013-04-02 13:02:00,51.6,48.2,30.21,NNW,343,0.0,0.0,88,0.00,,---,0.01,VWS V13.00,2013-04-02 20:02:00,
2013-04-02 13:07:00,51.6,48.2,30.22,NNW,343,0.0,0.0,88,0.00,,---,0.01,VWS V13.00,2013-04-02 20:07:00,
2013-04-02 13:12:00,51.6,48.2,30.22,NNW,343,0.0,0.0,88,0.00,,---,0.01,VWS V13.00,2013-04-02 20:12:00,
2013-04-02 13:17:00,51.7,48.3,30.22,NNW,343,0.0,0.0,88,0.00,,---,0.01,VWS V13.00,2013-04-02 20:17:00,
2013-04-02 13:22:00,51.7,48.3,30.22,NNW,343,0.0,0.0,88,0.00,,---,0.01,VWS V13.00,2013-04-02 20:22:00,
2013-04-02 13:27:00,51.7,48.3,30.22,NNW,343,0.0,0.0,88,0.00,,---,0.01,VWS V13.00,2013-04-02 20:27:00,
2013-04-02 13:32:00,51.7,48.3,30.22,NNW,343,0.0,0.0,88,0.00,,---,0.01,VWS V13.00,2013-04-02 20:32:00,
2013-04-02 13:37:00,51.9,48.5,30.21,NNW,343,0.0,0.0,88,0.00,,---,0.01,VWS V13.00,2013-04-02 20:37:00,
2013-04-02 13:42:00,51.9,48.5,30.21,NNW,343,0.0,0.0,88,0.00,,---,0.01,VWS V13.00,2013-04-02 20:42:00,
2013-04-02 13:47:00,52.0,48.6,30.21,NNW,343,0.0,0.0,88,0.00,,---,0.01,VWS V13.00,2013-04-02 20:47:00,
2013-04-02 13:53:00,52.0,48.3,30.21,SW,226,0.0,1.0,87,0.00,,---,0.01,VWS V13.00,2013-04-02 20:53:00,
2013-04-02 13:58:00,52.0,48.0,30.21,SW,226,0.0,1.0,86,0.00,,---,0.01,VWS V13.00,2013-04-02 20:58:00,
2013-04-02 14:03:00,52.0,48.0,30.21,SW,226,0.0,1.0,86,0.00,,---,0.01,VWS V13.00,2013-04-02 21:03:00,
2013-04-02 14:08:00,52.2,48.2,30.21,SW,226,0.0,0.0,86,0.00,,---,0.01,VWS V13.00,2013-04-02 21:08:00,
2013-04-02 14:13:00,52.3,48.2,30.21,SW,226,0.0,0.0,86,0.00,,---,0.01,VWS V13.00,2013-04-02 21:13:00,
2013-04-02 14:18:00,52.3,48.2,30.21,SW,226,0.0,0.0,86,0.00,,---,0.01,VWS V13.00,2013-04-02 21:18:00,
2013-04-02 14:23:00,52.3,48.2,30.22,SW,226,0.0,0.0,86,0.00,,---,0.01,VWS V13.00,2013-04-02 21:23:00,
2013-04-02 14:29:00,52.5,48.4,30.22,SW,226,0.0,0.0,86,0.00,,---,0.01,VWS V13.00,2013-04-02 21:29:00,
2013-04-02 14:34:00,52.5,48.1,30.22,SW,226,0.0,0.0,85,0.00,,---,0.01,VWS V13.00,2013-04-02 21:34:00,
2013-04-02 14:39:00,52.6,48.2,30.22,SW,226,0.0,0.0,85,0.00,,---,0.01,VWS V13.00,2013-04-02 21:39:00,
2013-04-02 14:44:00,52.8,48.4,30.22,SW,226,0.0,0.0,85,0.00,,---,0.01,VWS V13.00,2013-04-02 21:44:00,
2013-04-02 14:49:00,52.8,48.4,30.22,SW,226,0.0,0.0,85,0.00,,---,0.01,VWS V13.00,2013-04-02 21:49:00,
2013-04-02 14:54:00,52.8,48.4,30.21,SW,226,0.0,0.0,85,0.00,,---,0.01,VWS V13.00,2013-04-02 21:54:00,
2013-04-02 14:59:00,52.9,48.5,30.21,SW,226,0.0,0.0,85,0.00,,---,0.01,VWS V13.00,2013-04-02 21:59:00,
2013-04-02 15:04:00,52.9,48.5,30.21,SW,226,0.0,0.0,85,0.00,,---,0.01,VWS V13.00,2013-04-02 22:04:00,
2013-04-02 15:09:00,52.9,48.2,30.22,SW,226,0.0,0.0,84,0.00,,---,0.01,VWS V13.00,2013-04-02 22:09:00,
2013-04-02 15:14:00,52.9,48.5,30.22,SW,226,0.0,0.0,85,0.00,,---,0.01,VWS V13.00,2013-04-02 22:14:00,
2013-04-02 15:19:00,52.9,48.5,30.22,SW,226,0.0,0.0,85,0.00,,---,0.01,VWS V13.00,2013-04-02 22:19:00,
2013-04-02 15:24:00,52.9,48.5,30.22,SW,226,0.0,0.0,85,0.00,,---,0.01,VWS V13.00,2013-04-02 22:24:00,
2013-04-02 15:29:00,52.9,48.5,30.22,SW,226,0.0,0.0,85,0.00,,---,0.01,VWS V13.00,2013-04-02 22:29:00,
2013-04-02 15:34:00,52.9,48.5,30.22,SW,219,0.0,0.0,85,0.00,,---,0.01,VWS V13.00,2013-04-02 22:34:00,
2013-04-02 15:40:00,52.9,48.5,30.21,SW,226,0.0,0.0,85,0.00,,---,0.01,VWS V13.00,2013-04-02 22:40:00,
2013-04-02 15:45:00,52.8,48.4,30.21,SW,226,0.0,0.0,85,0.00,,---,0.01,VWS V13.00,2013-04-02 22:45:00,
2013-04-02 15:50:00,52.8,48.4,30.21,SW,226,0.0,0.0,85,0.00,,---,0.01,VWS V13.00,2013-04-02 22:50:00,
2013-04-02 15:55:00,52.8,48.1,30.20,SW,226,0.0,0.0,84,0.00,,---,0.01,VWS V13.00,2013-04-02 22:55:00,
2013-04-02 16:00:00,52.8,48.4,30.20,SW,226,0.0,0.0,85,0.00,,---,0.01,VWS V13.00,2013-04-02 23:00:00,
2013-04-02 16:05:00,52.6,47.9,30.20,SW,226,0.0,0.0,84,0.00,,---,0.01,VWS V13.00,2013-04-02 23:05:00,
2013-04-02 16:10:00,52.6,47.9,30.20,SW,226,0.0,0.0,84,0.00,,---,0.01,VWS V13.00,2013-04-02 23:10:00,
2013-04-02 16:15:00,52.6,47.9,30.20,SW,226,0.0,0.0,84,0.00,,---,0.01,VWS V13.00,2013-04-02 23:15:00,
2013-04-02 16:20:00,52.8,48.4,30.20,SW,226,0.0,0.0,85,0.00,,---,0.01,VWS V13.00,2013-04-02 23:20:00,
2013-04-02 16:25:00,52.8,48.4,30.20,SW,226,0.0,0.0,85,0.00,,---,0.01,VWS V13.00,2013-04-02 23:25:00,
2013-04-02 16:32:00,52.9,48.5,30.20,SW,226,0.0,0.0,85,0.00,,---,0.01,VWS V13.00,2013-04-02 23:32:00,
2013-04-02 16:38:00,53.1,48.7,30.19,SW,226,0.0,0.0,85,0.00,,---,0.01,VWS V13.00,2013-04-02 23:38:00,
2013-04-02 16:43:00,53.1,48.7,30.19,SW,226,0.0,0.0,85,0.00,,---,0.01,VWS V13.00,2013-04-02 23:43:00,
2013-04-02 16:48:00,53.2,48.8,30.19,SW,226,0.0,0.0,85,0.00,,---,0.01,VWS V13.00,2013-04-02 23:48:00,
2013-04-02 16:53:00,53.3,48.6,30.19,SW,226,0.0,0.0,84,0.00,,---,0.01,VWS V13.00,2013-04-02 23:53:00,
2013-04-02 16:58:00,53.3,48.6,30.19,SW,226,0.0,0.0,84,0.00,,---,0.01,VWS V13.00,2013-04-02 23:58:00,
2013-04-02 17:03:00,53.3,48.3,30.19,SW,226,0.0,0.0,83,0.00,,---,0.01,VWS V13.00,2013-04-03 00:03:00,
2013-04-02 17:08:00,53.5,48.5,30.19,SW,226,0.0,2.0,83,0.00,,---,0.01,VWS V13.00,2013-04-03 00:08:00,
2013-04-02 17:13:00,53.5,48.5,30.19,SW,226,0.0,2.0,83,0.00,,---,0.01,VWS V13.00,2013-04-03 00:13:00,
2013-04-02 17:18:00,53.6,48.6,30.19,SW,226,0.0,2.0,83,0.00,,---,0.01,VWS V13.00,2013-04-03 00:18:00,
2013-04-02 17:23:00,53.6,48.2,30.18,SW,226,0.0,2.0,82,0.00,,---,0.01,VWS V13.00,2013-04-03 00:23:00,
2013-04-02 17:28:00,53.8,48.4,30.18,SW,227,0.0,2.0,82,0.00,,---,0.01,VWS V13.00,2013-04-03 00:28:00,
2013-04-02 17:33:00,53.9,48.2,30.18,SW,227,0.0,2.0,81,0.00,,---,0.01,VWS V13.00,2013-04-03 00:33:00,
2013-04-02 17:38:00,54.1,48.4,30.17,SW,226,0.0,1.0,81,0.00,,---,0.01,VWS V13.00,2013-04-03 00:38:00,
2013-04-02 17:43:00,54.2,48.5,30.17,SW,226,0.0,2.0,81,0.00,,---,0.01,VWS V13.00,2013-04-03 00:43:00,
2013-04-02 17:48:00,54.5,48.8,30.17,SW,227,0.0,2.0,81,0.00,,---,0.01,VWS V13.00,2013-04-03 00:48:00,
2013-04-02 17:54:00,55.0,49.6,30.17,SW,227,0.0,2.0,82,0.00,,---,0.01,VWS V13.00,2013-04-03 00:54:00,
2013-04-02 17:59:00,55.1,49.0,30.17,SW,227,0.0,2.0,80,0.00,,---,0.01,VWS V13.00,2013-04-03 00:59:00,
2013-04-02 18:04:00,55.1,49.0,30.17,SW,227,0.0,2.0,80,0.00,,---,0.01,VWS V13.00,2013-04-03 01:04:00,
2013-04-02 18:09:00,55.3,48.9,30.17,SW,227,0.0,0.0,79,0.00,,---,0.01,VWS V13.00,2013-04-03 01:09:00,
2013-04-02 18:14:00,55.3,48.6,30.17,SW,227,0.0,0.0,78,0.00,,---,0.01,VWS V13.00,2013-04-03 01:14:00,
2013-04-02 18:19:00,55.3,48.9,30.17,SW,227,0.0,0.0,79,0.00,,---,0.01,VWS V13.00,2013-04-03 01:19:00,
2013-04-02 18:24:00,55.3,49.2,30.17,SW,227,0.0,0.0,80,0.00,,---,0.01,VWS V13.00,2013-04-03 01:24:00,
2013-04-02 18:29:00,55.3,49.2,30.17,SW,227,0.0,0.0,80,0.00,,---,0.01,VWS V13.00,2013-04-03 01:29:00,
2013-04-02 18:34:00,55.1,49.0,30.17,SW,227,0.0,0.0,80,0.00,,---,0.01,VWS V13.00,2013-04-03 01:34:00,
2013-04-02 18:39:00,55.0,49.0,30.17,SW,227,0.0,0.0,80,0.00,,---,0.01,VWS V13.00,2013-04-03 01:39:00,
2013-04-02 18:44:00,55.0,49.0,30.17,SW,227,0.0,0.0,80,0.00,,---,0.01,VWS V13.00,2013-04-03 01:44:00,
2013-04-02 18:49:00,54.8,48.8,30.17,SW,227,0.0,0.0,80,0.00,,---,0.01,VWS V13.00,2013-04-03 01:49:00,
2013-04-02 18:54:00,54.7,49.0,30.17,SW,227,0.0,0.0,81,0.00,,---,0.01,VWS V13.00,2013-04-03 01:54:00,
2013-04-02 19:00:00,54.5,48.8,30.17,SW,227,0.0,0.0,81,0.00,,---,0.01,VWS V13.00,2013-04-03 02:00:00,
2013-04-02 19:05:00,54.4,48.7,30.17,SW,227,0.0,0.0,81,0.00,,---,0.01,VWS V13.00,2013-04-03 02:05:00,
2013-04-02 19:10:00,54.2,48.8,30.17,SW,227,0.0,0.0,82,0.00,,---,0.01,VWS V13.00,2013-04-03 02:10:00,
2013-04-02 19:15:00,54.1,48.7,30.17,SW,227,0.0,0.0,82,0.00,,---,0.01,VWS V13.00,2013-04-03 02:15:00,
2013-04-02 19:20:00,53.9,48.9,30.17,SW,227,0.0,0.0,83,0.00,,---,0.01,VWS V13.00,2013-04-03 02:20:00,
2013-04-02 19:25:00,53.8,48.8,30.17,SW,227,0.0,0.0,83,0.00,,---,0.01,VWS V13.00,2013-04-03 02:25:00,
2013-04-02 19:30:00,53.6,48.6,30.17,SW,227,0.0,0.0,83,0.00,,---,0.01,VWS V13.00,2013-04-03 02:30:00,
2013-04-02 19:35:00,53.5,48.8,30.17,SW,227,0.0,0.0,84,0.00,,---,0.01,VWS V13.00,2013-04-03 02:35:00,
2013-04-02 19:40:00,53.5,48.8,30.17,SW,227,0.0,0.0,84,0.00,,---,0.01,VWS V13.00,2013-04-03 02:40:00,
2013-04-02 19:45:00,53.3,48.9,30.17,SW,227,0.0,0.0,85,0.00,,---,0.01,VWS V13.00,2013-04-03 02:45:00,
2013-04-02 19:50:00,53.2,48.8,30.17,SW,227,0.0,0.0,85,0.00,,---,0.01,VWS V13.00,2013-04-03 02:50:00,
2013-04-02 19:56:00,53.1,48.7,30.17,SW,227,0.0,0.0,85,0.00,,---,0.01,VWS V13.00,2013-04-03 02:56:00,
2013-04-02 20:01:00,53.1,48.7,30.17,SW,227,0.0,0.0,85,0.00,,---,0.01,VWS V13.00,2013-04-03 03:01:00,
2013-04-02 20:06:00,52.9,48.5,30.17,SW,227,0.0,0.0,85,0.00,,---,0.01,VWS V13.00,2013-04-03 03:06:00,
2013-04-02 20:11:00,52.8,48.7,30.17,SW,227,0.0,0.0,86,0.00,,---,0.01,VWS V13.00,2013-04-03 03:11:00,
2013-04-02 20:17:00,52.6,48.5,30.17,SW,227,0.0,0.0,86,0.00,,---,0.01,VWS V13.00,2013-04-03 03:17:00,
2013-04-02 20:22:00,52.6,48.5,30.19,SW,227,0.0,0.0,86,0.00,,---,0.01,VWS V13.00,2013-04-03 03:22:00,
2013-04-02 20:27:00,52.5,48.4,30.19,SW,227,0.0,0.0,86,0.00,,---,0.01,VWS V13.00,2013-04-03 03:27:00,
2013-04-02 20:32:00,52.5,48.8,30.19,SW,227,0.0,0.0,87,0.00,,---,0.01,VWS V13.00,2013-04-03 03:32:00,
2013-04-02 20:37:00,52.3,48.5,30.19,SW,227,0.0,0.0,87,0.00,,---,0.01,VWS V13.00,2013-04-03 03:37:00,
2013-04-02 20:42:00,52.2,48.8,30.19,SW,227,0.0,0.0,88,0.00,,---,0.01,VWS V13.00,2013-04-03 03:42:00,
2013-04-02 20:47:00,52.0,48.6,30.19,SW,227,0.0,0.0,88,0.00,,---,0.01,VWS V13.00,2013-04-03 03:47:00,
2013-04-02 20:52:00,51.9,48.5,30.19,SW,227,0.0,0.0,88,0.00,,---,0.01,VWS V13.00,2013-04-03 03:52:00,
2013-04-02 20:57:00,51.7,48.3,30.19,SW,227,0.0,0.0,88,0.00,,---,0.01,VWS V13.00,2013-04-03 03:57:00,
2013-04-02 21:00:00,51.7,48.3,30.19,SW,227,0.0,0.0,88,0.00,,---,0.01,VWS V13.00,2013-04-03 04:00:00,
2013-04-02 21:05:00,51.6,48.2,30.19,SW,227,0.0,0.0,88,0.00,,---,0.01,VWS V13.00,2013-04-03 04:05:00,
2013-04-02 21:10:00,51.4,48.0,30.19,SW,227,0.0,0.0,88,0.00,,---,0.01,VWS V13.00,2013-04-03 04:10:00,
2013-04-02 21:15:00,51.3,48.2,30.19,SW,227,0.0,0.0,89,0.00,,---,0.01,VWS V13.00,2013-04-03 04:15:00,
2013-04-02 21:20:00,51.1,48.0,30.19,SW,227,0.0,0.0,89,0.00,,---,0.01,VWS V13.00,2013-04-03 04:20:00,
2013-04-02 21:25:00,51.0,47.9,30.20,SW,227,0.0,0.0,89,0.00,,---,0.01,VWS V13.00,2013-04-03 04:25:00,
2013-04-02 21:30:00,51.0,47.9,30.20,SW,227,0.0,0.0,89,0.00,,---,0.01,VWS V13.00,2013-04-03 04:30:00,
2013-04-02 21:35:00,50.8,47.7,30.20,SW,227,0.0,0.0,89,0.00,,---,0.01,VWS V13.00,2013-04-03 04:35:00,
2013-04-02 21:40:00,50.8,47.7,30.20,SW,227,0.0,0.0,89,0.00,,---,0.01,VWS V13.00,2013-04-03 04:40:00,
2013-04-02 21:45:00,50.7,47.9,30.20,SW,227,0.0,0.0,90,0.00,,---,0.01,VWS V13.00,2013-04-03 04:45:00,
2013-04-02 21:50:00,50.7,47.9,30.20,SW,227,0.0,0.0,90,0.00,,---,0.01,VWS V13.00,2013-04-03 04:50:00,
2013-04-02 21:55:00,50.7,47.9,30.20,SW,227,0.0,0.0,90,0.00,,---,0.01,VWS V13.00,2013-04-03 04:55:00,
2013-04-02 22:00:00,50.5,47.7,30.20,SW,227,0.0,0.0,90,0.00,,---,0.01,VWS V13.00,2013-04-03 05:00:00,
2013-04-02 22:05:00,50.5,47.7,30.20,SW,227,0.0,0.0,90,0.00,,---,0.01,VWS V13.00,2013-04-03 05:05:00,
2013-04-02 22:10:00,50.5,47.7,30.20,SW,227,0.0,0.0,90,0.00,,---,0.01,VWS V13.00,2013-04-03 05:10:00,
2013-04-02 22:15:00,50.5,48.0,30.20,SW,227,0.0,0.0,91,0.00,,---,0.01,VWS V13.00,2013-04-03 05:15:00,
2013-04-02 22:20:00,50.4,47.9,30.20,SW,226,0.0,0.0,91,0.00,,---,0.01,VWS V13.00,2013-04-03 05:20:00,
2013-04-02 22:25:00,50.4,47.9,30.20,SW,227,0.0,0.0,91,0.00,,---,0.01,VWS V13.00,2013-04-03 05:25:00,
2013-04-02 22:30:00,50.4,47.9,30.20,SW,227,0.0,0.0,91,0.00,,---,0.01,VWS V13.00,2013-04-03 05:30:00,
2013-04-02 22:35:00,50.4,47.9,30.20,SW,226,0.0,0.0,91,0.00,,---,0.01,VWS V13.00,2013-04-03 05:35:00,
2013-04-02 22:40:00,50.2,47.7,30.20,SW,227,0.0,0.0,91,0.00,,---,0.01,VWS V13.00,2013-04-03 05:40:00,
2013-04-02 22:45:00,50.2,47.7,30.20,SW,227,0.0,0.0,91,0.00,,---,0.01,VWS V13.00,2013-04-03 05:45:00,
2013-04-02 22:50:00,50.2,48.0,30.20,SW,227,0.0,0.0,92,0.00,,---,0.01,VWS V13.00,2013-04-03 05:50:00,
2013-04-02 22:55:00,50.2,48.0,30.20,SW,226,0.0,0.0,92,0.00,,---,0.01,VWS V13.00,2013-04-03 05:55:00,
2013-04-02 23:00:00,50.1,47.9,30.20,SW,227,0.0,0.0,92,0.00,,---,0.01,VWS V13.00,2013-04-03 06:00:00,
2013-04-02 23:05:00,50.1,47.9,30.20,SW,227,0.0,0.0,92,0.00,,---,0.01,VWS V13.00,2013-04-03 06:05:00,
2013-04-02 23:10:00,50.1,47.9,30.20,SW,227,0.0,0.0,92,0.00,,---,0.01,VWS V13.00,2013-04-03 06:10:00,
2013-04-02 23:15:00,49.9,47.7,30.20,SW,227,0.0,0.0,92,0.00,,---,0.01,VWS V13.00,2013-04-03 06:15:00,
2013-04-02 23:20:00,49.9,47.4,30.20,SW,227,0.0,0.0,91,0.00,,---,0.01,VWS V13.00,2013-04-03 06:20:00,
2013-04-02 23:25:00,49.8,47.3,30.20,SW,227,0.0,0.0,91,0.00,,---,0.01,VWS V13.00,2013-04-03 06:25:00,
2013-04-02 23:30:00,49.8,47.3,30.20,SW,227,0.0,0.0,91,0.00,,---,0.01,VWS V13.00,2013-04-03 06:30:00,
2013-04-02 23:35:00,49.8,47.3,30.20,SW,227,0.0,0.0,91,0.00,,---,0.01,VWS V13.00,2013-04-03 06:35:00,
2013-04-02 23:40:00,49.6,47.1,30.20,SW,227,0.0,0.0,91,0.00,,---,0.01,VWS V13.00,2013-04-03 06:40:00,
2013-04-02 23:45:00,49.6,47.1,30.20,SW,227,0.0,0.0,91,0.00,,---,0.01,VWS V13.00,2013-04-03 06:45:00,
2013-04-02 23:50:00,49.5,47.0,30.20,SW,226,0.0,0.0,91,0.00,,---,0.01,VWS V13.00,2013-04-03 06:50:00,
2013-04-02 23:55:00,49.4,46.9,30.20,SW,227,0.0,0.0,91,0.00,,---,0.01,VWS V13.00,2013-04-03 06:55:00,